RH
31 32 32 33 34 35 36 37 38 37 36 35 33 31 30 31 33 33 34 37 40 43 48 52 55 52 44 40 44 52 59 65 69 72 78 88 96 100 101 100 100 100 100 100 97 94 92 90 87 87 87 81 72 67 66 63 61 60 58 55 52 49 46 43 35 26 22 25 27 29 30 29 29 30 30 29 30 30 29 28 26 26 26 23 22
36 36 36 37 38 39 40 40 40 39 39 40 41 41 38 36 37 38 40 43 45 49 55 58 57 50 46 49 57 63 69 75 80 82 86 94 100 100 100 101 100 100 100 98 94 93 92 90 89 90 85 75 69 68 65 63 62 61 59 57 54 52 50 47 42 34 27 28 33 34 34 33 31 32 33 32 31 30 29 28 27 28 27 24 24
40 40 40 41 42 43 43 42 41 42 43 45 47 51 52 50 47 46 48 51 54 58 62 61 56 53 57 63 69 75 81 87 91 93 94 99 100 100 100 101 100 100 98 95 94 94 92 91 92 88 78 71 68 66 64 63 64 62 60 59 56 53 53 52 48 43 36 34 36 39 38 36 35 34 34 33 31 29 28 27 28 30 29 26 27
44 44 44 45 47 48 47 44 43 45 48 48 48 52 60 64 61 56 56 59 62 64 64 62 61 64 69 74 80 88 94 97 99 99 99 100 100 100 100 100 101 100 98 97 96 96 95 94 90 81 72 68 66 63 63 65 65 63 62 61 60 58 57 56 54 51 47 41 39 41 42 39 37 35 33 32 30 28 28 27 29 31 30 28 31
50 50 51 52 54 54 50 47 49 53 54 53 53 56 65 72 70 64 62 64 65 66 66 67 70 73 79 87 94 98 98 97 98 100 101 101 100 101 101 102 102 100 99 99 98 97 96 92 83 73 68 66 63 62 65 66 66 66 65 65 65 64 63 61 59 56 53 48 44 44 43 40 37 34 32 30 29 28 28 28 30 32 30 29 33
57 58 59 61 61 57 53 54 58 61 60 58 60 67 75 76 71 66 65 66 68 69 70 74 79 86 93 98 98 95 93 92 94 97 99 100 100 101 102 102 101 100 99 98 98 98 93 83 72 65 62 62 62 64 66 67 67 67 68 68 69 69 67 64 62 59 56 52 48 45 42 38 35 32 31 30 29 28 28 30 32 34 32 29 33
64 65 67 67 63 58 58 63 66 66 64 66 72 79 81 76 70 67 68 71 73 76 82 88 93 97 96 93 89 88 90 91 93 96 98 99 101 101 101 101 100 99 97 97 97 93 81 70 62 58 58 60 63 66 67 67 69 70 71 72 72 71 69 65 63 60 56 52 48 45 41 37 33 31 30 30 30 28 29 31 33 36 35 31 33
70 72 72 67 63 63 66 69 69 69 72 78 85 88 85 79 76 76 78 82 86 91 95 96 94 90 85 83 85 89 92 95 97 99 100 100 101 101 101 101 100 99 99 97 91 79 67 60 57 55 57 61 64 67 69 70 72 73 74 75 75 72 69 66 63 59 56 52 47 43 39 35 32 30 30 30 29 28 31 35 35 37 37 33 33
75 75 71 66 65 69 72 73 75 79 86 91 94 94 92 91 90 91 93 95 96 95 92 87 83 81 83 87 92 96 99 101 101 100 100 100 100 101 100 100 100 100 98 89 75 63 57 55 54 56 59 63 67 70 72 75 76 77 78 78 76 73 70 66 62 59 55 51 46 41 37 34 31 29 29 30 30 30 34 38 38 39 39 35 33
78 74 69 68 71 75 76 78 85 92 96 99 99 98 99 100 99 98 97 94 90 85 82 81 83 88 94 98 100 100 101 101 100 100 100 100 100 100 100 101 100 94 84 72 60 54 53 52 53 57 62 66 71 74 76 78 79 79 80 80 77 73 69 65 62 58 54 50 45 40 36 33 30 28 28 30 33 34 36 39 40 42 43 38 33
77 73 71 74 77 80 83 89 96 100 101 101 101 100 100 98 95 91 87 83 81 81 83 88 93 98 101 101 101 101 101 101 101 100 100 100 101 100 100 97 89 77 66 59 55 52 50 52 56 61 67 72 76 78 80 82 82 82 82 80 78 73 69 65 62 58 53 49 44 39 36 32 29 29 29 32 36 36 37 41 43 44 46 43 38
77 76 78 81 85 89 94 98 100 101 101 101 99 97 93 89 85 82 80 80 83 87 92 96 99 102 102 102 101 101 101 101 101 102 101 102 100 95 89 80 68 61 58 55 54 51 51 56 61 67 73 77 80 82 83 83 84 84 83 81 78 73 69 66 61 56 52 47 43 39 35 31 30 31 31 34 38 40 41 42 45 47 48 48 45
82 84 87 91 95 98 99 99 99 99 98 95 91 87 84 81 81 81 84 87 91 95 98 99 99 98 97 96 95 95 97 99 101 101 98 94 86 77 73 70 62 58 56 53 52 53 56 62 68 73 78 81 84 86 86 86 87 87 86 83 79 74 69 64 59 55 51 46 42 38 34 33 33 32 33 37 40 42 43 43 45 49 51 52 52
90 93 96 99 100 100 99 97 95 92 89 86 83 82 82 84 86 89 92 93 94 95 93 91 89 86 85 86 86 89 94 99 100 95 87 79 70 61 61 65 64 60 57 53 54 58 63 69 74 78 82 84 86 87 87 88 89 89 88 84 79 74 68 62 57 53 50 47 41 36 34 34 34 34 36 38 38 40 42 44 46 50 54 57 58
98 99 101 101 100 99 96 93 89 85 84 84 85 87 89 91 92 92 91 89 86 82 79 77 75 74 76 79 83 89 96 100 98 91 80 72 66 59 56 56 56 55 54 55 60 65 69 75 79 82 85 85 84 84 85 87 88 88 87 83 79 74 67 62 57 52 49 47 43 38 35 34 36 39 40 41 40 40 41 42 44 48 52 55 56
101 100 100 99 98 95 91 88 87 87 88 91 91 92 91 90 87 83 79 74 69 65 62 61 62 65 69 75 82 92 99 100 95 87 76 67 61 55 51 49 49 51 54 58 65 70 75 80 84 86 87 85 84 85 87 87 87 86 84 80 77 73 67 62 57 51 48 46 45 44 43 41 40 39 39 42 42 42 43 43 44 46 47 48 49
101 99 98 96 93 91 90 91 92 93 93 92 90 86 83 78 71 64 58 53 48 46 45 46 49 57 66 76 85 93 98 96 88 79 68 58 50 46 46 48 51 55 60 65 70 76 82 87 89 91 90 86 86 89 91 90 88 84 79 75 72 69 66 62 56 51 48 46 46 48 49 48 48 47 47 47 47 48 48 43 42 44 43 42 42
99 96 93 92 92 93 94 94 94 92 89 85 79 71 63 55 46 40 36 32 30 31 33 37 43 52 64 77 84 88 89 84 73 62 53 46 43 44 48 52 57 61 66 71 77 83 88 91 93 93 91 88 89 91 92 90 86 82 77 72 68 65 60 58 55 51 49 48 50 53 54 54 54 55 59 61 63 67 60 45 39 42 39 37 37
94 92 92 93 95 96 95 92 89 83 76 67 56 45 36 29 24 22 21 21 22 23 26 32 39 47 57 68 75 76 73 65 54 47 43 43 45 49 53 58 63 68 73 78 85 90 93 94 94 93 92 91 91 90 88 85 82 79 75 71 67 62 55 52 52 49 47 46 48 52 57 60 60 59 60 60 62 67 64 54 48 46 39 35 36
93 94 96 96 95 93 89 83 75 63 50 38 29 22 18 16 15 14 14 15 17 19 23 27 34 41 49 56 62 62 59 53 47 44 45 48 51 55 60 65 69 75 81 87 92 96 96 95 93 92 92 91 88 84 81 79 77 74 70 65 60 56 52 49 48 46 46 45 44 46 50 58 64 65 62 57 54 54 55 56 57 55 50 45 42
97 98 97 94 90 85 76 63 48 34 24 18 15 14 13 12 12 11 12 12 13 16 20 25 29 35 41 48 53 55 53 51 50 49 51 54 58 61 67 72 78 84 90 95 98 97 97 96 94 91 88 84 79 76 76 76 74 70 65 60 54 52 51 49 46 44 43 43 43 43 44 49 57 64 65 62 57 52 51 51 54 58 60 58 56
98 96 93 88 80 66 50 34 23 17 15 14 13 12 11 10 10 10 10 10 10 13 17 23 27 32 37 44 51 54 55 56 56 57 58 61 64 69 74 81 88 94 97 99 98 96 95 95 91 84 78 72 68 65 65 65 63 61 58 56 55 57 63 67 65 58 49 42 40 40 39 41 46 53 61 64 62 57 54 52 52 55 59 62 67
96 92 87 75 57 39 24 17 15 14 13 12 12 11 10 10 10 10 10 10 10 12 16 20 25 31 38 46 52 57 61 63 64 65 67 69 73 78 84 90 97 101 101 100 98 95 92 88 80 73 68 63 58 54 53 53 52 51 52 55 60 69 78 84 83 73 59 49 43 40 39 40 40 43 50 57 61 63 63 61 60 61 61 63 68
93 85 70 50 31 19 15 14 14 13 13 12 11 11 10 10 10 11 11 12 13 14 16 20 24 30 39 48 56 62 67 71 73 74 76 78 82 86 92 97 101 103 104 102 99 94 85 76 69 62 57 52 49 48 48 47 47 47 49 53 59 66 71 72 71 69 66 62 57 52 47 44 43 43 44 49 58 68 75 78 77 75 73 70 71
83 66 44 26 17 15 15 15 14 13 12 12 11 11 11 11 12 13 13 15 16 17 19 22 26 30 37 45 56 64 71 75 80 82 84 86 90 93 98 101 102 103 103 100 93 85 76 69 62 55 49 47 46 47 47 47 47 49 51 53 54 56 58 58 59 63 68 69 69 69 65 58 51 46 45 49 55 64 74 82 85 86 86 83 80
62 39 22 15 15 15 15 14 14 13 12 11 11 11 12 12 13 15 16 18 19 20 22 25 29 32 36 43 54 64 72 77 81 85 89 92 94 97 99 100 99 96 92 85 76 69 64 60 56 51 49 49 49 48 47 46 46 46 47 49 52 55 56 57 59 63 70 76 81 85 87 85 79 71 63 58 53 54 61 70 76 82 86 87 87
36 20 15 15 16 15 15 14 14 13 12 12 12 12 13 14 15 16 19 21 22 23 25 28 31 34 38 43 51 59 67 73 77 81 84 84 83 83 84 84 83 79 73 66 60 55 51 50 49 48 48 48 47 47 46 46 46 46 46 48 52 56 60 64 67 70 75 80 85 89 94 98 100 97 90 79 68 62 62 64 67 71 75 81 85
20 15 16 16 16 16 16 15 14 13 12 12 12 12 14 15 16 18 21 23 24 26 29 31 34 37 40 43 47 52 57 63 67 70 71 68 65 64 65 66 65 61 57 52 49 48 47 46 45 42 40 39 38 40 42 45 48 53 58 62 65 68 73 78 81 81 81 84 87 91 96 100 101 102 102 99 94 89 85 82 79 79 82 87 88
16 16 16 16 16 16 16 15 14 13 13 13 13 14 15 16 17 20 23 27 29 31 33 36 38 39 41 43 45 47 49 52 56 58 56 54 53 53 53 52 51 49 48 48 48 48 47 46 44 42 41 42 45 49 53 58 62 68 73 77 81 84 87 89 90 90 91 94 98 100 102 103 102 103 103 102 102 102 101 99 96 94 96 98 95
16 16 16 17 17 16 16 15 15 14 13 13 13 14 16 19 20 21 25 30 35 38 39 41 42 43 43 44 47 48 49 50 52 53 52 51 52 52 50 48 47 46 45 44 43 41 39 37 36 37 40 44 50 56 60 65 70 74 77 81 86 90 93 96 97 99 101 102 103 104 104 104 103 103 103 102 101 101 101 101 101 101 101 100 96
18 18 17 17 17 17 16 15 15 14 13 14 13 13 16 21 27 29 30 33 38 43 46 46 46 47 47 48 49 50 50 51 51 52 54 55 55 55 54 55 57 60 58 53 48 42 38 37 37 37 39 41 43 46 50 54 58 61 63 68 73 77 81 86 91 97 103 104 104 104 103 103 102 102 101 101 101 101 101 101 101 101 100 99 96
18 18 18 17 17 17 16 15 14 14 14 14 14 15 16 20 28 34 38 39 41 46 50 51 51 51 51 53 55 55 54 53 51 49 49 48 49 50 52 55 60 63 63 62 58 50 46 47 50 53 57 60 62 65 69 72 74 76 76 77 77 78 79 80 83 89 94 97 101 103 103 103 102 102 101 101 101 101 101 100 100 101 101 99 96
18 18 18 17 17 16 16 15 15 14 14 15 16 18 20 22 25 32 40 47 50 53 55 56 56 55 54 55 58 61 62 62 60 56 52 50 49 49 48 49 50 52 55 58 60 60 63 68 72 77 83 87 90 94 96 97 96 96 95 93 90 89 88 87 87 89 90 92 96 100 102 103 103 102 102 102 101 101 101 100 100 101 101 101 101
18 18 18 17 17 16 16 16 15 15 15 17 18 21 24 27 29 32 39 47 54 60 64 66 65 63 61 59 59 60 62 64 65 64 63 62 59 56 52 52 54 57 62 68 72 78 86 92 96 100 102 102 102 102 102 101 101 100 100 99 97 96 94 93 92 91 91 92 94 96 99 102 103 102 102 101 100 101 101 101 101 101 101 102 104
18 18 18 17 17 16 16 16 16 16 17 19 22 25 28 32 35 39 42 47 53 60 69 75 76 75 74 71 68 66 65 65 66 68 68 69 68 68 68 70 73 78 84 89 92 96 99 102 104 105 104 102 102 102 101 101 101 101 101 100 101 100 100 99 98 96 95 95 95 96 99 100 101 101 101 100 101 101 100 101 101 101 101 101 101
17 17 17 17 17 17 16 16 16 17 19 22 26 30 34 38 42 46 50 54 58 62 70 78 83 86 87 86 83 80 78 76 76 76 77 79 81 83 86 89 93 97 100 102 103 104 104 104 105 104 103 102 103 103 102 101 101 101 100 100 100 101 100 101 101 100 100 99 98 98 100 100 100 101 100 100 100 100 100 100 101 100 101 101 100
18 18 18 18 18 17 17 17 17 18 21 26 32 37 42 47 50 52 55 58 61 64 70 77 82 87 92 96 96 92 91 91 91 91 92 93 95 97 99 101 103 105 105 105 104 105 104 103 103 103 102 102 103 103 102 101 101 102 101 101 101 101 100 100 101 100 100 101 100 100 100 100 100 100 100 100 100 100 100 100 100 100 100 101 100
19 19 19 19 18 17 17 17 18 19 22 28 34 40 45 51 54 56 57 57 59 62 67 73 78 84 90 95 96 96 96 97 99 100 101 102 102 103 103 103 104 105 106 105 105 104 104 104 104 104 104 104 103 103 102 101 101 101 101 100 100 100 100 100 100 100 100 100 100 100 100 100 100 100 100 100 100 100 100 100 100 101 101 100 100
19 20 20 19 19 18 18 18 18 20 23 29 36 42 48 52 56 57 57 56 57 59 61 64 71 79 85 87 89 90 90 91 95 99 101 102 102 101 100 100 100 100 100 100 100 101 102 103 104 104 104 103 102 101 102 102 102 102 101 101 101 101 100 100 100 100 101 101 100 100 100 100 100 100 100 101 100 100 100 100 100 100 100 100 101
20 20 20 20 19 19 19 19 19 20 23 29 37 44 51 55 57 58 57 56 54 54 55 57 62 71 76 77 78 79 78 80 86 91 94 96 98 98 98 97 95 95 95 96 98 99 100 102 103 103 102 101 99 98 98 98 97 97 98 99 100 101 101 101 101 100 100 100 100 100 101 100 100 100 100 100 100 100 100 100 100 100 100 101 100
21 21 21 21 21 20 20 20 20 21 24 29 36 45 53 58 60 61 59 56 52 49 48 47 51 59 64 67 69 70 69 70 75 80 84 87 89 89 90 91 92 94 97 99 101 103 103 102 99 94 89 84 81 78 77 77 79 81 83 86 91 96 100 102 103 102 101 101 100 100 101 100 100 100 100 100 100 100 100 101 100 100 100 101 100
22 22 22 22 23 22 22 22 22 22 24 27 35 44 53 59 63 64 60 55 50 45 41 40 43 50 56 59 63 65 66 68 71 74 77 80 82 85 89 93 96 100 103 103 103 99 92 84 76 69 64 63 63 65 68 70 73 78 83 87 93 97 100 103 105 104 103 102 101 101 101 101 100 101 101 100 101 101 101 101 100 100 100 100 100
24 24 24 25 26 25 25 25 25 24 24 26 32 42 51 59 65 66 61 54 48 44 41 39 41 47 53 58 61 63 66 69 71 73 76 80 85 91 97 102 104 105 102 95 85 73 62 56 54 53 56 60 63 67 72 76 81 87 92 96 99 100 101 103 105 103 102 102 101 101 101 101 101 101 101 100 101 102 101 101 101 101 101 101 100
26 27 27 28 29 29 30 30 29 28 27 27 30 37 48 58 66 68 63 55 49 46 45 46 49 54 59 63 66 68 71 74 76 80 85 90 95 100 104 105 100 89 75 62 53 48 46 48 51 54 56 60 64 68 74 82 90 97 100 100 100 101 102 102 102 101 101 100 99 99 101 101 100 101 101 101 101 101 101 101 101 101 101 101 101
29 30 31 32 33 34 35 35 35 33 32 30 30 34 44 56 65 68 64 56 52 52 54 59 65 70 73 76 78 80 81 84 88 93 96 99 103 105 100 86 69 53 44 41 43 45 47 49 51 52 55 59 65 72 80 88 97 103 105 104 102 102 102 102 100 100 101 100 98 99 100 100 100 101 101 101 101 101 101 101 101 101 102 102 101
34 35 36 37 39 40 40 40 40 39 37 35 33 33 39 51 64 70 66 58 54 59 67 74 78 81 84 87 90 92 95 98 101 102 103 105 102 91 71 52 39 37 40 43 44 45 47 49 51 54 58 63 70 78 87 95 101 106 109 109 106 103 101 101 100 100 100 100 100 100 100 100 100 100 100 100 101 101 101 101 100 101 102 101 101
39 41 43 43 44 45 45 45 46 45 43 41 37 34 37 47 61 71 69 60 56 64 76 84 87 90 93 96 98 101 104 106 107 107 105 97 80 57 40 34 36 39 42 43 43 45 47 50 54 58 64 69 75 80 86 92 98 103 107 108 106 103 101 100 100 100 100 100 100 100 100 100 101 100 100 101 100 100 101 101 100 100 101 101 101
46 47 49 49 50 51 51 51 51 50 48 45 41 36 37 46 61 72 71 62 58 68 82 91 94 97 100 101 103 105 106 107 108 104 90 68 47 35 32 36 39 40 41 42 44 46 49 53 58 65 70 74 76 78 82 87 92 96 100 102 102 101 100 100 100 100 100 100 100 100 100 100 101 100 100 101 100 100 101 101 100 100 101 100 100
52 53 54 55 56 56 56 55 55 54 52 48 43 37 37 45 62 74 74 64 61 72 88 98 101 101 102 102 103 105 107 107 102 85 61 40 31 32 36 38 39 40 41 43 44 47 52 58 64 69 72 73 74 76 79 83 87 92 98 102 103 102 101 100 100 100 100 100 100 100 100 100 100 100 100 100 100 100 101 100 100 101 101 100 100
57 59 59 60 60 60 60 60 58 56 53 48 41 35 37 49 66 78 75 65 65 79 95 104 104 102 101 101 103 106 108 102 83 57 37 30 32 35 36 38 39 41 42 43 46 50 56 62 66 70 72 73 74 76 78 81 85 89 95 99 102 101 100 99 99 100 100 100 100 100 100 101 101 100 100 100 100 100 100 100 100 100 100 100 100
61 62 62 62 63 63 62 61 59 56 52 46 38 34 40 56 73 81 75 66 70 86 101 107 106 103 101 100 102 106 103 85 59 37 29 31 34 36 37 39 40 41 42 45 48 53 57 62 67 70 72 73 75 78 79 81 85 89 93 96 98 99 100 100 100 100 100 100 101 101 102 102 102 101 100 100 100 100 100 100 100 100 101 101 100
Wind_Speed
46 46 46 46 46 46 46 46 46 47 47 47 46 47 47 48 51 53 53 55 57 58 58 57 56 55 54 53 53 53 54 55 57 59 61 62 63 63 62 61 59 58 59 61 64 65 67 66 65 62 59 58 56 56 54 54 53 53 53 53 53 53 53 54 56 57 55 53 53 52 50 48 49 50 50 51 50 48 46 45 43 42 42 42 41
46 46 46 46 47 47 47 47 47 47 47 46 45 44 44 46 49 52 54 55 57 58 57 55 54 53 53 53 53 54 55 56 58 60 60 61 61 61 60 58 57 58 60 63 65 67 67 65 63 61 59 58 56 55 55 54 54 53 53 53 53 52 52 52 53 55 55 53 52 52 50 48 48 48 49 50 49 48 46 44 43 42 42 41 40
46 46 46 46 47 48 48 48 48 47 46 45 44 43 44 45 48 51 53 55 56 56 54 53 52 52 52 52 53 54 56 58 59 59 58 58 58 57 56 55 56 59 63 65 66 66 65 63 61 59 58 57 56 54 54 53 53 54 54 53 53 52 51 51 52 53 54 53 51 52 51 49 48 47 48 48 48 47 46 44 43 42 42 40 40
45 46 46 46 47 47 48 48 48 47 46 45 44 44 45 46 47 49 51 52 53 52 51 50 50 51 52 53 54 56 57 57 56 56 56 56 56 56 55 56 58 61 64 65 64 63 62 61 60 58 57 57 55 54 53 52 52 53 53 53 52 52 51 51 52 52 52 52 51 51 51 49 47 47 47 47 46 46 45 44 43 43 42 40 39
46 46 47 47 47 47 47 48 48 47 46 45 45 45 46 45 46 47 47 48 49 49 49 49 50 52 53 55 56 56 55 54 54 54 55 56 57 57 57 58 60 62 63 62 61 61 60 60 58 57 57 56 55 54 52 52 51 51 51 51 50 50 50 51 51 51 51 52 51 50 50 49 48 46 46 46 45 45 45 44 43 43 42 40 38
48 48 48 48 47 46 46 46 46 46 45 45 45 45 44 44 44 45 45 46 48 48 50 51 52 54 55 55 54 53 52 52 53 54 55 56 57 57 57 58 59 60 60 59 59 59 59 58 57 56 55 55 55 54 53 52 51 51 50 50 49 49 49 49 50 50 50 51 50 50 50 49 48 46 45 45 45 45 44 44 43 42 42 40 38
49 49 48 47 45 44 43 44 44 44 44 45 44 43 43 43 43 44 46 47 49 50 51 52 53 54 53 52 52 51 51 52 53 54 55 56 56 55 55 55 56 57 58 58 58 58 57 56 55 54 54 54 54 53 53 52 51 51 50 48 48 48 49 49 48 49 50 50 50 50 49 48 47 46 45 44 44 44 44 44 43 42 42 41 39
48 47 45 43 42 41 41 42 43 43 43 44 43 42 43 43 44 46 47 48 50 51 51 52 52 51 51 50 50 50 51 52 53 53 53 53 52 51 51 52 54 56 57 57 57 56 56 55 54 54 53 52 52 52 51 51 50 50 49 48 47 47 48 48 48 48 49 49 50 49 49 48 46 45 44 44 44 44 43 44 44 43 42 42 41
46 44 41 40 39 39 40 41 42 43 43 43 43 43 43 44 46 47 48 49 50 50 50 50 50 49 49 49 50 50 51 51 52 51 51 49 48 48 51 53 55 55 56 56 56 55 55 54 54 53 52 52 51 51 50 49 49 49 48 47 46 47 47 47 47 48 48 49 49 48 48 47 46 44 43 43 43 44 43 44 45 44 43 43 42
43 40 38 38 38 39 41 42 42 43 43 43 43 43 44 45 46 46 47 48 49 49 48 48 48 48 49 49 50 50 50 50 50 49 47 46 47 49 52 53 54 55 55 55 55 55 54 53 52 52 51 51 50 50 49 48 48 47 46 46 46 46 47 47 47 47 48 48 48 47 47 47 45 43 43 42 42 44 44 45 45 44 44 44 43
39 38 37 38 39 41 42 43 43 42 42 42 42 42 43 44 45 45 46 47 47 47 47 48 48 49 49 49 49 50 50 49 49 47 46 46 48 51 52 53 54 54 55 55 55 54 53 52 51 51 50 50 49 48 47 47 47 46 46 45 45 46 46 47 47 47 48 48 47 46 47 46 43 42 42 42 42 43 44 45 46 46 45 45 44
37 37 38 39 41 42 42 42 42 41 41 41 41 41 42 43 44 44 45 46 46 47 47 48 49 49 49 50 49 50 50 49 48 47 46 47 49 51 52 52 53 54 55 55 54 53 51 51 50 50 49 49 48 47 46 46 46 46 45 45 45 45 46 46 47 47 47 47 47 46 46 44 43 41 41 41 42 43 44 45 46 46 45 46 45
37 38 40 41 42 42 41 40 40 39 39 39 40 41 41 42 43 44 45 46 46 47 47 48 48 49 49 49 49 49 49 48 48 47 47 47 48 51 52 53 54 54 55 54 53 51 50 49 49 49 48 47 46 46 45 45 44 44 44 45 45 45 45 45 47 47 47 47 47 46 44 43 42 40 39 40 41 43 45 45 45 45 46 46 46
39 40 41 41 40 39 38 38 38 38 39 39 39 40 41 42 43 44 44 45 45 46 46 47 47 48 48 48 49 49 49 48 47 46 47 47 47 49 52 54 56 56 55 54 52 50 49 48 48 48 46 46 45 44 43 43 43 43 43 44 45 44 44 44 45 47 47 48 48 46 43 42 43 40 38 39 42 43 44 45 45 46 46 47 47
40 40 39 38 37 37 37 37 37 38 38 39 40 40 41 42 42 42 43 43 44 44 45 46 47 47 48 48 48 49 48 47 46 46 47 47 47 49 51 53 55 55 55 54 53 51 50 49 48 47 45 44 43 42 42 42 42 43 43 44 44 44 44 43 43 44 46 47 48 46 44 43 43 42 39 39 41 42 43 44 45 46 48 49 49
39 38 37 36 35 35 36 36 37 37 38 38 39 39 40 40 40 41 41 42 43 44 44 45 46 47 47 48 48 48 47 46 46 46 46 47 47 49 50 52 53 53 53 53 51 51 50 49 48 46 45 43 40 40 41 41 43 44 44 44 44 45 45 43 41 42 43 44 46 46 45 44 44 44 42 41 41 41 42 44 45 46 48 50 50
36 35 35 34 35 35 36 36 36 37 37 37 38 38 38 39 39 40 41 41 42 43 44 45 46 46 47 46 46 46 46 45 45 45 46 46 47 48 50 51 51 52 52 51 50 50 49 48 47 46 45 42 39 38 39 41 44 46 45 44 44 45 44 41 39 40 41 41 43 44 44 44 43 43 42 42 42 41 42 45 46 46 48 51 52
34 34 34 34 34 35 35 36 36 36 36 36 36 36 37 38 38 39 40 42 43 44 45 45 45 45 45 45 45 45 45 44 43 44 45 45 46 48 49 50 51 51 50 49 49 49 48 46 45 45 44 42 39 37 38 40 43 46 47 46 46 46 43 40 39 39 38 39 41 41 43 43 42 42 41 40 39 40 44 47 47 46 48 50 51
34 34 34 34 34 34 34 34 34 34 34 34 35 36 37 38 39 40 41 42 43 44 45 45 45 45 44 44 44 44 43 42 42 42 43 44 45 47 48 50 51 50 49 48 48 48 47 45 44 43 43 41 39 38 38 39 42 45 46 47 48 46 42 40 41 41 40 40 40 41 42 43 42 43 42 41 40 41 44 47 48 48 49 49 49
33 33 33 33 33 33 33 33 32 33 33 34 35 36 38 39 40 41 42 43 44 44 44 44 44 44 44 43 43 42 41 41 40 41 43 44 45 46 47 49 50 49 48 48 48 47 46 44 43 41 40 40 40 39 38 39 42 44 44 46 48 46 42 41 42 42 42 43 42 41 42 42 42 44 44 43 43 43 44 46 47 48 50 49 49
33 33 33 32 32 32 31 31 31 32 33 34 36 38 39 40 41 42 43 44 44 44 44 44 44 44 43 43 42 41 41 40 40 40 42 43 44 44 46 48 48 48 48 48 47 47 45 44 42 40 39 39 39 39 38 39 40 43 44 46 47 45 43 42 43 43 44 44 43 43 43 42 43 44 45 45 44 43 43 44 45 46 48 49 49
32 32 31 31 30 30 30 30 31 32 34 36 38 39 40 41 42 43 44 44 44 44 44 43 44 44 43 42 42 41 40 40 39 39 40 41 42 43 45 46 47 47 48 48 47 46 44 43 42 40 39 39 40 39 39 39 40 42 44 44 43 41 40 41 42 43 45 45 44 44 44 43 43 44 45 46 45 43 42 42 43 44 45 46 48
31 30 30 29 29 29 29 31 32 34 36 37 39 40 41 42 42 43 44 44 45 45 44 43 43 44 43 42 41 40 40 40 39 38 38 39 40 42 43 44 45 46 48 49 48 46 44 43 42 40 40 40 40 39 39 39 40 41 42 41 40 38 38 40 43 45 47 47 47 47 45 44 43 43 43 44 44 44 43 42 41 42 42 43 44
29 29 28 28 28 29 30 32 33 35 37 38 40 41 41 42 43 43 43 44 44 44 44 43 43 43 42 41 40 39 39 39 38 37 37 37 39 41 42 43 44 45 47 48 48 46 45 44 43 42 41 41 40 40 40 40 40 41 41 40 40 40 42 43 45 46 48 48 49 48 46 45 44 43 42 42 42 42 43 43 42 41 41 41 41
28 27 27 27 28 29 31 33 34 36 38 39 40 41 42 43 43 43 43 43 43 43 43 42 43 42 42 40 39 38 38 38 37 37 36 37 38 39 41 43 43 44 45 46 47 47 47 46 44 43 42 42 41 41 40 40 40 40 40 41 42 43 44 45 45 45 47 48 49 49 48 47 45 44 43 42 43 43 43 44 43 42 41 41 41
26 26 26 27 29 30 32 34 35 37 38 39 40 41 42 43 43 43 43 43 43 43 42 41 41 41 41 40 38 37 37 37 36 36 36 36 37 37 40 42 43 43 44 44 45 46 46 46 45 44 43 43 43 42 42 41 40 40 40 41 42 44 45 45 45 45 46 46 47 48 49 49 48 47 45 45 45 45 45 45 45 44 43 43 43
26 26 27 28 29 31 33 34 36 38 39 40 40 41 41 42 43 42 42 42 42 42 42 41 40 39 39 39 38 37 36 36 36 35 36 36 36 36 38 40 41 42 43 43 43 44 46 45 45 44 43 43 43 43 43 42 41 41 40 40 40 42 43 44 45 45 46 46 46 47 48 48 49 50 50 49 47 46 46 46 46 46 45 45 46
25 26 27 28 30 32 34 35 37 38 39 40 40 40 41 41 41 41 41 41 42 41 41 41 39 39 39 38 37 37 36 34 34 35 36 36 36 36 37 38 39 40 40 41 42 44 45 45 45 44 44 43 43 42 42 41 41 40 40 39 39 40 41 43 45 46 46 46 46 47 47 48 49 50 51 51 51 50 48 48 47 47 47 48 49
26 27 28 29 31 33 35 36 38 39 39 40 40 40 40 41 41 40 39 39 40 40 40 40 39 38 39 39 38 37 36 34 33 35 36 35 35 36 37 37 37 38 38 38 41 43 44 45 44 44 44 43 43 42 41 40 40 40 40 39 39 40 40 41 43 44 45 45 46 46 47 47 48 48 49 50 51 51 50 50 49 49 49 50 51
27 27 29 30 31 33 35 37 38 39 40 40 40 40 39 39 40 40 39 38 38 38 39 39 39 39 40 39 37 37 36 34 33 33 34 34 35 37 38 38 38 37 37 37 40 43 44 44 43 42 41 41 41 41 41 40 40 41 40 40 41 41 41 42 43 43 43 44 45 45 46 47 48 48 48 49 49 50 50 51 51 50 50 51 51
27 28 30 31 32 34 36 37 38 39 40 40 40 40 39 38 37 38 39 39 37 37 37 37 38 39 40 40 39 38 37 35 33 32 32 33 34 36 37 37 37 37 37 39 41 42 43 43 43 42 42 42 43 42 42 42 42 42 42 42 42 43 43 43 43 43 43 44 45 45 46 47 48 48 48 48 48 49 49 50 51 51 51 52 51
28 29 30 31 33 35 36 37 38 39 39 40 40 40 40 38 37 35 36 37 37 37 36 36 36 37 38 40 41 41 40 38 36 34 32 33 34 34 35 35 35 36 37 39 41 42 42 43 44 44 44 45 46 45 45 46 45 45 45 45 44 44 44 44 44 44 45 46 46 46 47 47 48 48 48 48 48 49 49 50 50 51 51 52 52
29 30 31 32 33 35 36 37 38 38 39 39 39 39 39 40 39 37 35 35 35 35 36 36 36 36 36 37 38 39 40 40 39 38 36 34 33 34 35 36 36 36 37 39 41 43 42 43 44 44 44 45 46 46 47 48 48 48 49 49 48 48 47 47 46 47 48 48 48 48 48 48 48 48 48 48 48 49 50 50 50 51 51 52 52
30 31 32 33 34 35 36 37 38 38 39 39 39 39 39 39 40 39 38 36 34 33 33 33 35 35 35 35 36 36 37 37 38 39 38 37 36 36 37 38 38 37 38 40 42 43 43 44 45 45 46 46 46 47 48 49 49 50 51 51 52 51 51 50 50 49 49 49 49 49 50 49 49 49 49 49 48 49 50 51 51 52 52 52 52
30 31 32 33 34 35 36 37 37 38 38 38 39 39 39 40 40 40 39 39 37 34 32 32 33 34 34 34 35 35 35 36 36 37 37 38 38 39 40 40 39 39 39 40 42 43 45 46 47 47 48 48 49 49 50 50 51 51 51 51 52 52 52 52 52 52 51 51 50 50 50 51 51 51 50 50 50 50 50 50 51 52 52 52 52
31 32 33 34 34 35 36 36 37 37 38 38 39 39 40 40 40 40 40 40 39 38 35 33 33 33 33 34 35 35 35 35 36 36 37 38 39 40 42 42 41 41 41 41 42 43 45 46 47 48 49 49 50 50 50 50 51 51 51 51 51 51 51 52 52 53 53 52 52 51 51 51 51 52 52 53 52 52 51 50 50 50 50 51 51
31 32 34 34 35 36 36 36 37 37 37 38 38 39 39 39 40 40 40 39 39 38 37 35 34 33 32 33 35 36 35 35 35 36 36 37 39 40 42 43 43 44 43 43 43 43 44 45 46 47 48 49 49 50 50 50 50 50 50 50 50 50 50 50 50 51 52 53 53 53 53 53 53 54 54 55 54 53 52 51 51 50 49 49 49
32 33 34 35 36 36 36 36 37 37 37 37 38 38 39 39 39 40 40 40 39 39 37 36 35 34 33 33 34 35 35 35 34 34 35 36 37 39 40 41 42 43 43 43 43 44 44 44 44 45 46 47 47 48 49 49 49 49 49 49 49 49 49 48 49 50 50 51 52 52 53 54 54 54 55 55 54 54 53 52 52 50 50 49 49
33 34 34 35 36 36 36 37 37 37 37 38 38 39 39 40 40 41 41 41 40 39 38 37 35 34 34 34 34 35 36 35 34 34 35 35 36 37 39 40 41 42 43 43 44 44 44 44 44 44 44 44 45 46 47 47 48 48 48 48 48 48 48 48 48 48 49 49 50 50 51 52 52 53 53 53 53 52 51 51 51 51 50 49 49
33 34 34 35 36 36 36 36 37 37 37 38 38 39 40 40 41 41 42 41 41 40 39 38 36 35 35 35 35 36 36 36 35 35 35 35 36 37 38 39 40 41 42 42 43 44 44 44 44 44 44 44 45 45 45 46 47 47 47 47 47 46 46 47 47 47 47 47 47 47 48 49 50 50 50 50 49 49 49 49 49 49 49 48 48
34 34 35 35 36 36 36 36 36 37 37 38 38 39 40 40 41 42 42 42 41 40 39 38 36 35 35 35 35 36 36 36 36 36 35 36 36 36 37 38 39 40 40 41 42 43 43 44 44 45 45 45 45 45 45 45 45 46 46 46 45 44 44 43 44 44 45 45 45 45 45 46 46 47 47 47 46 46 46 46 46 46 46 46 46
34 35 35 35 36 36 36 36 37 37 38 38 39 39 40 41 41 41 42 42 41 40 39 38 36 35 34 34 35 35 35 36 36 36 36 36 36 36 37 37 38 39 39 40 41 42 42 43 43 44 44 44 43 43 43 43 43 43 43 42 42 42 41 40 40 40 40 41 41 41 41 42 42 43 43 43 43 43 43 43 43 43 43 43 43
35 36 36 36 36 36 37 37 37 37 38 38 39 39 40 41 41 41 42 41 41 40 38 36 35 34 34 33 34 34 34 34 35 35 35 35 36 36 36 37 37 38 39 39 40 41 41 41 42 42 42 42 42 41 41 41 40 40 39 39 39 38 38 37 36 35 35 36 36 36 36 37 37 37 37 38 38 38 38 39 39 40 40 39 39
36 36 36 36 37 37 37 38 38 38 39 39 39 39 40 40 40 41 41 40 40 38 36 35 34 34 33 33 33 33 33 33 33 33 34 34 35 35 36 36 37 38 38 38 39 39 40 40 41 41 41 40 40 39 38 38 37 37 36 36 36 35 34 33 32 31 32 32 32 31 31 31 31 32 32 33 33 33 34 34 35 35 36 36 36
37 37 37 37 37 37 38 38 39 39 39 40 40 40 40 40 40 40 40 40 38 37 35 33 33 33 33 33 32 32 32 32 32 33 33 34 34 35 36 37 37 37 37 37 37 38 39 39 40 40 39 38 37 36 35 34 34 33 33 33 33 32 30 30 29 28 29 29 29 28 27 27 27 27 28 29 29 30 30 30 31 31 32 32 32
38 38 38 38 38 38 38 38 38 39 39 40 40 40 40 40 40 40 40 39 37 35 34 33 33 33 33 32 32 32 32 32 32 33 33 34 35 35 36 36 36 35 36 36 37 37 38 38 38 38 37 35 34 33 32 31 31 30 30 29 29 28 27 26 26 26 26 26 25 25 25 24 24 24 24 25 26 27 27 26 26 27 28 28 29
38 38 38 38 38 38 38 38 38 39 39 40 40 40 40 39 39 39 39 38 36 34 33 33 33 32 32 32 32 32 32 32 32 33 33 34 35 35 35 34 34 34 35 36 36 36 36 36 35 35 34 33 32 30 29 28 27 27 26 26 25 24 23 23 23 23 23 23 22 22 22 22 22 22 21 22 23 23 23 23 23 23 24 25 26
38 38 38 38 38 38 38 38 38 39 39 40 40 40 40 39 39 39 38 37 35 33 32 32 32 31 31 31 31 32 32 32 32 33 33 34 34 33 33 33 33 34 34 35 35 35 34 34 33 32 31 30 29 28 26 25 24 23 22 22 21 20 20 20 20 20 20 20 19 19 18 19 19 19 19 19 19 19 20 20 20 20 22 22 22
38 38 38 38 38 38 38 38 39 39 40 40 40 40 40 39 38 38 38 36 34 32 31 30 30 30 30 31 31 31 31 31 32 33 33 33 32 31 32 32 32 33 33 33 33 32 32 31 30 29 28 27 26 25 23 22 21 20 19 19 18 18 17 17 17 17 17 16 16 16 15 15 16 16 16 16 15 15 16 17 17 18 18 18 18
38 38 38 37 38 38 38 38 39 39 40 40 40 40 39 38 38 37 36 35 32 30 29 29 30 30 30 30 30 30 31 31 32 32 32 31 30 30 31 31 31 31 31 31 31 30 29 28 27 26 25 24 23 22 21 19 18 17 16 16 15 15 15 14 14 13 13 13 13 13 12 12 12 12 12 12 12 12 13 14 14 14 15 15 15
37 37 37 37 38 38 38 38 39 39 39 39 39 38 38 37 36 36 35 33 31 29 29 29 29 29 30 30 30 30 30 31 31 31 30 29 29 29 30 30 30 30 29 29 28 27 26 26 24 23 22 21 20 19 18 17 16 15 14 14 13 13 12 12 11 11 10 10 10 9 9 8 8 8 8 8 9 10 10 11 12 12 13 13 14
Wind_Direction
295 294 292 291 290 289 288 286 284 283 282 280 278 276 275 274 272 271 271 272 274 276 279 282 283 281 278 277 277 277 278 279 280 279 278 278 277 277 278 279 280 281 283 283 284 286 288 289 288 288 287 287 286 287 288 288 289 290 290 291 291 290 289 288 288 288 286 285 283 282 281 279 278 278 278 278 277 275 273 271 269 268 267 268 268
295 294 292 291 290 289 288 286 284 282 281 281 280 278 276 274 273 272 272 272 274 276 278 280 279 277 275 276 276 278 280 281 280 279 278 278 278 276 277 278 279 281 282 283 285 286 287 287 287 286 286 286 287 288 289 290 291 291 291 291 290 289 288 287 286 286 285 284 282 281 280 279 278 276 275 275 274 273 271 269 268 266 266 267 267
295 294 292 290 290 288 287 285 282 281 280 280 281 281 279 276 274 273 273 273 274 276 277 276 275 274 274 276 277 280 281 281 280 278 278 278 276 275 276 278 279 282 283 284 285 286 286 285 285 286 286 286 287 288 289 290 291 292 291 291 290 289 288 286 284 284 283 283 281 281 280 279 277 276 274 273 272 271 269 267 265 265 265 265 265
295 294 292 290 289 287 285 283 280 279 280 280 282 283 282 279 276 275 274 274 275 275 275 274 273 274 275 278 280 281 281 280 278 277 276 275 275 276 277 279 281 282 282 283 284 284 284 284 284 285 285 286 287 288 289 290 291 291 291 290 290 289 287 285 283 283 282 282 281 281 280 279 277 276 274 273 271 269 267 264 262 262 263 263 263
296 294 292 290 289 287 284 281 279 280 281 283 284 285 284 281 277 276 275 275 275 274 273 273 274 277 279 281 281 281 280 278 277 275 274 274 275 276 278 280 280 281 281 281 282 282 282 283 283 284 285 286 288 289 290 290 290 290 290 289 288 286 284 283 282 282 282 282 281 280 280 279 277 276 274 273 270 268 266 263 261 261 261 261 261
297 295 294 292 289 286 282 280 280 282 284 286 287 287 284 281 278 276 275 275 275 275 275 277 279 281 282 282 281 280 279 277 276 275 274 274 276 277 279 279 279 279 279 280 280 281 281 282 283 284 286 287 288 289 290 290 290 290 289 287 286 283 282 281 281 281 280 280 280 279 278 278 277 276 274 273 270 267 265 263 261 261 261 260 260
299 297 294 291 288 284 281 281 282 285 287 288 288 286 283 280 277 276 276 276 277 278 280 281 282 283 282 282 281 280 279 277 276 276 276 276 278 278 279 278 278 278 278 278 279 280 281 282 283 285 286 287 288 289 290 290 290 289 288 286 284 282 281 280 279 279 279 279 279 278 277 277 276 275 274 272 270 267 265 263 262 261 262 260 259
299 296 293 289 286 283 282 284 286 288 289 288 287 284 281 279 278 278 279 280 281 282 283 283 283 283 283 282 281 280 279 279 279 278 279 279 279 279 278 276 276 277 278 279 280 281 282 283 284 285 286 287 288 289 290 290 289 288 286 285 283 281 280 279 278 278 278 278 278 277 277 276 275 275 273 272 270 267 266 264 262 261 261 261 260
298 295 291 287 285 284 285 287 289 290 289 287 285 283 281 280 281 281 282 283 284 284 284 284 284 284 283 283 282 281 281 281 280 280 280 280 279 277 276 275 276 277 279 280 280 281 282 283 284 285 286 287 288 289 289 289 287 286 285 283 281 279 278 278 278 278 278 277 277 277 276 276 275 275 273 271 269 267 265 264 263 263 262 261 260
297 292 288 286 285 286 288 289 290 289 287 285 283 282 282 282 283 284 284 284 285 285 285 285 284 284 284 283 283 282 282 282 282 281 280 279 277 276 275 277 278 279 279 279 280 281 282 283 284 285 286 288 289 289 289 287 285 284 283 281 280 279 278 278 278 278 278 277 276 276 276 276 276 276 274 271 269 266 265 264 264 264 263 262 261
293 289 286 286 287 288 289 289 289 288 286 284 283 283 284 284 284 285 284 285 285 285 285 285 285 284 284 283 283 283 283 283 282 281 279 277 276 276 277 278 278 279 279 279 280 281 282 283 285 286 287 288 289 288 287 286 284 283 281 280 279 278 278 279 279 278 278 277 276 275 275 276 276 276 274 272 269 266 265 264 264 264 264 264 263
289 287 286 288 288 289 290 289 288 287 285 285 285 285 285 285 285 285 285 285 285 285 285 285 284 284 284 284 284 284 284 283 282 281 280 278 278 278 278 277 277 278 278 279 280 282 283 284 286 286 287 288 288 287 286 284 283 282 281 280 278 278 278 279 279 278 277 277 276 275 275 277 277 276 274 273 271 268 265 264 264 264 265 265 265
289 288 289 290 291 290 290 289 288 287 286 286 286 286 285 285 285 285 285 285 285 285 285 285 285 285 285 285 285 285 285 284 283 282 280 279 278 278 278 278 277 277 278 279 280 282 284 285 285 286 287 287 286 286 285 284 282 281 280 279 278 278 279 279 279 278 277 276 276 276 277 278 276 275 274 273 270 267 265 265 265 265 266 266 266
291 291 292 292 291 291 290 289 288 287 287 287 286 286 285 285 285 285 285 286 286 286 286 286 286 286 286 286 286 285 285 284 283 281 279 278 277 277 278 279 279 279 280 280 282 283 284 284 284 285 285 284 284 283 282 280 279 278 277 277 277 278 277 276 277 278 278 278 278 278 278 277 277 276 274 272 270 268 266 265 265 265 265 265 265
292 292 292 291 291 291 290 289 288 288 288 287 287 286 286 286 286 287 287 287 287 287 287 287 287 287 286 286 285 285 285 283 281 279 278 277 277 276 277 278 279 281 282 283 284 285 285 284 284 284 283 283 282 281 280 278 277 275 275 274 275 275 275 275 275 275 276 277 278 279 279 278 278 277 275 272 270 270 269 267 265 264 263 263 263
292 292 292 292 291 290 289 289 289 289 289 288 288 288 288 288 289 289 289 289 289 288 288 288 287 287 287 286 285 285 284 282 280 279 278 277 277 277 277 278 280 281 282 284 285 285 286 285 285 285 284 283 282 281 280 279 277 275 273 273 274 274 274 275 275 274 273 273 275 276 277 276 276 276 275 273 271 270 269 268 266 265 264 264 263
293 292 292 292 291 291 290 290 290 290 290 290 290 290 291 291 291 291 291 291 290 290 289 289 288 288 287 286 286 284 283 281 280 279 278 278 277 277 278 278 279 280 281 282 283 283 284 285 285 285 285 284 283 281 280 280 279 277 275 274 273 273 273 274 274 272 271 271 271 272 273 273 273 273 273 273 273 272 270 267 265 264 264 264 264
293 292 292 292 292 292 292 292 292 292 292 292 293 293 293 293 293 293 293 292 292 291 291 290 289 289 288 287 285 284 282 281 280 279 279 278 278 278 278 278 278 279 280 281 282 282 282 283 284 284 284 284 283 281 280 279 279 279 280 279 277 275 275 275 273 271 269 268 268 268 269 270 270 270 269 268 269 269 269 269 269 267 265 265 265
293 293 293 293 293 293 293 293 293 294 294 295 295 295 295 295 295 295 294 294 293 293 292 291 290 289 288 286 285 284 283 281 280 279 278 278 277 277 278 278 278 279 280 281 280 281 281 282 282 282 283 284 283 281 280 278 277 278 279 280 278 277 278 277 275 273 269 266 265 264 265 266 267 267 266 266 264 263 265 269 271 271 270 270 270
294 294 294 294 294 294 294 295 295 296 297 297 297 298 298 298 298 297 297 296 295 294 293 292 291 290 288 287 285 284 282 281 280 278 277 277 277 277 277 277 278 279 280 280 280 281 281 282 282 281 282 282 282 281 280 279 278 278 278 278 278 278 279 276 273 272 271 269 267 265 264 264 265 265 265 264 264 263 263 265 267 269 271 272 272
295 295 295 295 295 296 297 298 298 298 299 300 301 301 301 301 300 299 299 298 296 296 295 293 292 290 289 287 286 284 282 280 279 277 277 277 276 276 277 278 279 280 280 280 280 281 282 282 282 281 281 280 280 279 279 278 277 277 276 277 279 281 281 277 274 273 271 269 268 266 264 263 262 263 264 264 264 263 263 264 265 266 268 270 272
296 296 296 297 298 299 299 300 300 302 303 304 304 303 303 303 302 302 301 299 298 297 296 294 293 291 290 288 286 285 283 281 279 277 276 276 276 276 277 278 279 280 280 281 281 281 282 282 282 282 281 280 278 277 276 274 273 273 274 276 279 281 280 279 277 275 273 271 270 268 266 264 262 262 263 265 266 265 264 264 264 264 265 266 268
297 297 298 299 300 301 301 302 305 306 306 307 306 306 306 305 304 304 302 301 300 299 297 296 294 292 291 289 287 286 284 282 280 278 276 276 276 276 277 278 279 280 281 281 282 283 283 283 283 283 281 280 279 278 277 275 273 273 274 275 275 273 271 270 271 272 273 274 274 273 272 271 270 267 266 266 268 269 268 266 264 264 264 264 265
298 299 300 300 301 303 305 306 308 309 309 309 308 308 308 307 306 305 304 302 301 300 298 297 295 293 292 290 288 287 285 283 281 279 277 276 276 276 277 277 278 279 281 282 284 285 285 284 284 283 282 281 280 279 277 276 275 275 275 274 272 270 268 269 270 272 273 274 275 276 276 274 273 271 270 269 269 268 268 267 266 265 264 263 263
299 300 300 301 303 305 307 309 310 310 310 310 310 310 310 309 308 306 305 304 302 300 299 297 296 295 293 292 290 288 285 284 282 280 278 277 276 276 277 277 277 278 279 281 283 285 285 285 285 284 283 283 283 281 280 279 278 277 276 275 274 274 273 274 275 274 274 275 276 277 278 276 275 273 271 270 268 266 265 265 265 265 264 264 263
300 300 301 303 306 308 310 311 312 312 312 312 312 312 311 310 309 308 306 305 303 301 300 298 297 296 295 294 292 289 286 284 283 281 279 277 276 275 275 276 277 278 278 280 281 282 283 283 284 285 285 285 285 284 282 281 279 277 275 275 275 275 275 275 275 274 274 274 274 275 276 277 277 275 272 270 268 266 266 265 264 263 262 262 262
300 301 303 306 308 310 312 313 313 313 314 314 314 313 312 312 311 309 308 306 304 303 302 300 299 298 296 294 292 290 288 287 286 284 281 279 277 276 275 275 276 277 278 280 281 281 281 282 283 284 284 283 283 282 282 282 281 279 278 276 275 275 275 275 274 273 272 271 271 271 271 272 273 273 273 272 270 269 268 268 267 267 265 264 263
301 303 306 308 310 312 313 314 314 315 315 315 315 315 314 313 312 311 309 307 306 305 304 303 302 300 297 295 294 291 290 289 288 286 283 282 281 279 277 276 277 278 279 281 282 282 283 283 284 284 283 283 283 282 282 283 282 281 280 278 276 274 274 273 273 272 272 272 271 270 269 268 268 269 270 271 271 270 270 269 269 269 269 269 268
303 305 307 310 312 314 314 315 315 316 316 317 317 317 316 315 313 312 311 308 307 307 305 304 303 301 299 297 296 294 293 292 289 287 286 286 285 282 279 278 277 278 280 281 282 281 281 281 283 284 285 285 285 285 284 283 282 280 279 277 275 273 271 270 270 271 272 272 271 271 270 269 268 267 267 267 268 269 269 268 268 267 267 267 267
304 306 309 311 313 314 314 315 316 317 317 318 318 318 317 316 315 314 312 310 308 308 306 306 305 302 300 299 297 296 296 294 292 290 290 290 289 287 286 286 286 285 283 282 280 280 280 281 282 283 283 283 282 282 281 280 278 277 276 275 273 272 270 269 269 269 270 270 270 270 270 269 269 268 267 267 267 267 267 267 267 266 265 264 264
305 307 310 312 313 314 315 316 317 318 319 320 320 320 319 318 316 314 313 312 310 308 306 305 304 303 301 300 299 297 296 294 293 291 290 289 287 287 289 290 291 290 288 286 284 284 286 288 288 288 286 285 283 282 281 280 278 277 276 274 273 272 271 270 269 269 269 268 268 268 268 268 268 268 268 268 268 267 267 266 266 266 266 265 265
306 308 310 312 313 314 315 317 318 319 320 321 321 321 320 319 318 316 314 313 311 309 307 305 303 302 301 302 302 301 300 299 297 294 291 289 288 288 287 287 287 286 286 287 286 287 288 289 289 289 289 288 288 287 286 285 284 282 280 278 277 275 274 272 271 269 268 267 266 267 267 267 267 267 267 267 267 266 266 266 266 266 267 267 267
307 309 310 312 314 315 316 318 319 320 321 321 322 322 322 321 321 319 317 314 312 310 309 306 303 301 300 300 300 299 300 300 299 298 296 294 291 289 288 287 286 286 286 286 286 287 287 287 286 286 286 286 287 287 287 287 286 286 285 284 282 280 278 276 274 272 270 269 268 267 267 266 266 266 266 265 265 264 264 265 265 265 265 266 266
308 309 310 312 314 315 317 318 320 321 322 322 323 323 323 323 322 321 319 317 314 311 309 306 303 300 299 298 297 297 296 296 296 297 297 296 294 292 290 289 289 289 288 287 287 288 288 287 287 287 287 287 286 286 286 286 286 286 286 285 285 284 282 280 278 276 274 273 271 270 269 268 267 267 266 265 265 264 264 264 264 264 264 265 265
309 310 311 313 315 316 318 319 320 321 322 323 324 324 324 324 323 322 321 319 318 315 312 308 303 300 298 296 295 293 293 293 293 294 295 295 294 293 292 291 291 290 288 287 287 288 288 288 288 288 288 287 287 286 286 286 285 284 284 283 283 283 282 281 280 278 277 275 274 272 272 271 270 270 269 268 268 267 266 265 265 265 265 266 266
309 310 311 313 315 317 318 319 321 322 323 324 324 325 325 325 324 323 322 321 319 317 315 311 307 303 301 298 295 293 292 291 291 291 291 291 291 291 291 291 291 290 289 287 287 286 286 286 286 286 286 286 286 285 284 283 282 282 281 280 278 278 277 277 277 276 276 275 274 273 272 271 271 271 271 270 270 269 268 268 267 266 266 266 267
310 311 312 314 315 317 319 320 321 321 323 323 324 324 324 324 324 323 321 320 318 316 315 312 309 307 304 301 298 296 294 293 291 291 291 290 290 290 291 292 292 292 291 290 289 287 286 286 285 285 285 285 285 285 284 283 282 281 280 278 277 275 273 272 271 270 270 270 270 270 270 269 269 269 269 270 269 269 269 268 268 267 267 266 266
311 312 314 315 316 318 319 320 321 321 322 322 323 324 324 324 323 322 321 320 318 316 315 313 311 309 306 303 300 298 297 296 295 294 292 292 291 291 291 291 292 292 292 291 291 289 289 288 287 286 285 285 285 284 284 283 282 281 280 278 277 275 274 271 269 267 266 265 265 264 265 265 265 265 265 266 266 266 266 266 266 266 266 265 265
312 313 314 315 316 318 319 320 320 320 321 322 323 323 324 324 324 323 322 321 319 317 315 314 312 310 308 305 303 301 300 300 299 298 297 295 295 294 294 293 293 293 293 292 292 292 291 290 289 288 287 287 286 285 284 284 282 281 280 279 278 276 275 273 271 269 267 266 264 263 262 261 261 261 261 262 262 262 263 263 263 264 264 264 264
313 313 314 315 316 318 319 320 320 320 321 321 322 323 323 324 324 323 323 322 320 318 316 315 313 311 309 307 305 304 303 303 303 302 301 300 298 297 297 296 295 295 295 295 295 295 295 294 294 293 292 290 289 288 287 286 285 284 282 281 279 278 276 275 273 271 269 268 266 264 263 262 261 261 260 260 261 261 260 260 261 261 262 262 263
313 313 314 315 317 318 319 320 320 320 321 321 321 322 323 324 324 324 323 322 320 319 317 315 314 312 310 309 308 307 306 306 306 305 303 303 301 300 299 299 298 298 298 298 298 298 298 297 297 296 295 294 292 291 289 288 287 286 285 284 283 281 279 277 275 273 272 270 268 266 264 263 262 262 261 261 260 260 259 259 258 259 259 260 260
314 314 315 316 317 319 320 320 321 321 321 321 322 322 323 323 324 323 323 322 321 319 318 317 316 314 313 311 310 309 309 308 308 307 307 306 304 304 303 302 302 302 301 301 300 299 299 298 298 297 296 295 295 294 293 291 290 289 288 286 285 284 282 280 278 276 275 273 271 270 267 265 263 262 261 261 260 259 258 258 257 257 257 257 257
315 316 317 317 319 320 321 321 321 321 321 321 322 322 322 323 323 323 323 322 321 320 318 317 316 315 314 314 312 311 311 310 309 309 308 307 306 306 306 305 305 304 303 303 302 301 301 300 300 299 299 298 298 297 296 294 293 292 290 288 287 286 284 283 281 279 277 275 273 272 270 269 267 265 263 262 261 259 258 257 256 255 255 255 255
316 317 318 319 320 320 321 321 322 322 322 322 322 322 322 323 323 323 323 322 321 320 318 318 317 317 317 316 315 314 313 312 311 310 309 309 309 308 308 307 307 306 306 305 304 304 304 303 303 302 302 301 301 300 298 297 295 293 292 290 289 288 287 286 284 282 279 277 275 274 272 271 269 268 266 264 262 259 257 255 254 254 253 252 252
318 319 319 320 320 321 322 322 323 323 322 322 322 322 322 322 322 323 323 322 321 319 318 318 318 319 318 318 318 317 315 314 313 313 312 312 311 311 310 310 310 309 309 309 308 308 308 307 307 306 305 304 303 302 300 299 297 295 293 292 291 290 289 287 285 283 281 280 279 278 275 272 269 267 266 265 263 260 257 254 252 251 250 249 249
320 320 320 320 321 322 322 322 322 322 322 322 322 322 322 322 322 323 322 322 320 319 318 319 319 320 320 320 320 319 318 317 316 315 315 314 314 313 313 313 313 313 312 312 312 312 311 311 310 309 308 307 306 305 303 301 299 296 294 293 292 291 290 288 285 283 282 282 281 280 277 274 272 268 265 263 261 259 257 254 251 248 247 245 245
320 320 320 321 321 321 321 322 322 323 323 322 323 323 323 323 323 323 322 321 320 318 318 319 320 321 322 322 321 320 320 319 318 317 317 316 316 315 315 316 316 316 316 316 316 315 315 314 313 312 312 311 310 309 306 304 301 298 296 295 293 292 291 288 285 285 283 282 281 280 277 275 272 269 265 261 258 256 255 252 248 244 243 241 240
321 321 321 321 321 321 322 322 323 323 323 323 323 323 323 323 323 323 322 322 320 318 318 320 321 323 323 323 323 322 321 320 320 319 319 318 318 318 318 319 319 320 320 320 319 319 318 318 317 316 315 314 313 312 310 307 305 302 300 299 297 295 293 289 287 286 285 282 281 278 275 272 270 267 265 261 257 252 250 247 243 239 237 236 235
322 321 321 322 322 322 323 324 324 324 324 323 323 324 324 324 324 323 323 322 320 319 319 321 322 324 324 324 323 323 322 322 322 321 321 321 321 321 321 322 323 323 323 323 323 323 323 322 321 320 319 318 317 316 314 313 311 308 305 302 300 299 296 293 290 288 286 284 281 278 275 271 268 265 263 260 254 246 242 240 236 233 230 229 228
323 323 323 323 324 324 325 325 325 324 323 323 324 325 325 325 324 324 324 323 321 321 321 322 324 325 326 325 325 324 324 324 324 323 323 323 323 324 325 326 327 327 327 327 328 328 328 327 326 325 323 322 322 321 320 319 317 314 310 307 304 301 299 296 294 290 287 284 282 279 275 270 266 262 258 254 245 236 231 229 225 221 219 215 211
325 325 325 326 326 326 326 326 325 324 324 325 326 326 326 325 325 326 325 324 323 322 323 324 326 327 327 327 327 326 326 326 325 325 326 326 327 327 329 329 330 331 332 332 333 334 334 333 332 331 330 329 328 327 326 325 324 321 317 314 310 306 303 300 297 293 289 284 280 275 271 266 258 250 241 233 225 218 214 211 206 201 198 195 194